Molokai Island Weather Center

Moon Phase Calendar



Online Cameras

 


      

Current Conditions in Kualapu‘u
10/28/2020 1:56:36 AM

71°F
Feels Like 76
Rain
Humidity
91%
Pressure
29.91"
Wind
3 mph (WNW)
Dew Point
68°F
UV Index
8/10 (Very High)
Visibility
6 mi

Hourly Forecast

Date & Time Wed, Oct 28
1:00 AM
Wed, Oct 28
2:00 AM
Wed, Oct 28
3:00 AM
Wed, Oct 28
4:00 AM
Wed, Oct 28
5:00 AM
Wed, Oct 28
6:00 AM
Wed, Oct 28
7:00 AM
Wed, Oct 28
8:00 AM
Wed, Oct 28
9:00 AM
Wed, Oct 28
10:00 AM
Wed, Oct 28
11:00 AM
Wed, Oct 28
12:00 PM
Wed, Oct 28
1:00 PM
Wed, Oct 28
2:00 PM
Wed, Oct 28
3:00 PM
Wed, Oct 28
4:00 PM
Wed, Oct 28
5:00 PM
Wed, Oct 28
6:00 PM
Wed, Oct 28
7:00 PM
Wed, Oct 28
8:00 PM
Wed, Oct 28
9:00 PM
Wed, Oct 28
10:00 PM
Wed, Oct 28
11:00 PM
Thu, Oct 29
12:00 AM
Thu, Oct 29
1:00 AM
Thu, Oct 29
2:00 AM
Thu, Oct 29
3:00 AM
Thu, Oct 29
4:00 AM
Thu, Oct 29
5:00 AM
Thu, Oct 29
6:00 AM
Thu, Oct 29
7:00 AM
Thu, Oct 29
8:00 AM
Thu, Oct 29
9:00 AM
Thu, Oct 29
10:00 AM
Thu, Oct 29
11:00 AM
Thu, Oct 29
12:00 PM
Thu, Oct 29
1:00 PM
Thu, Oct 29
2:00 PM
Thu, Oct 29
3:00 PM
Thu, Oct 29
4:00 PM
Thu, Oct 29
5:00 PM
Thu, Oct 29
6:00 PM
Thu, Oct 29
7:00 PM
Thu, Oct 29
8:00 PM
Thu, Oct 29
9:00 PM
Thu, Oct 29
10:00 PM
Thu, Oct 29
11:00 PM
Fri, Oct 30
12:00 AM
Condition
Rain

Rain

Rain

Rain

Rain

Rain

Rain

Rain

Rain

Rain

Rain

Rain

Rain

Rain

Rain

Rain

Rain

Rain

Rain

Clear

Rain

Rain

Rain

Rain

Rain

Rain

Rain

Rain

Rain

Rain

Rain

Rain

Rain

Rain

Rain

Rain

Rain

Rain

Rain

Clouds

Clouds

Clouds

Rain

Rain

Rain

Rain

Clouds

Clear
Temperature 71°F73°F74°F75°F75°F75°F75°F76°F76°F77°F77°F77°F77°F76°F77°F77°F76°F76°F75°F75°F75°F75°F75°F75°F74°F73°F73°F73°F74°F73°F73°F74°F74°F74°F75°F75°F75°F75°F75°F75°F75°F75°F75°F75°F75°F74°F74°F74°F
Feels Like 72°F74°F75°F76°F76°F77°F76°F77°F77°F78°F78°F77°F76°F75°F75°F75°F75°F75°F76°F76°F77°F77°F77°F77°F77°F76°F75°F75°F75°F76°F76°F77°F78°F79°F78°F78°F77°F76°F76°F75°F74°F74°F74°F74°F74°F74°F73°F73°F
Cloudiness 100%100%100%100%100%87%88%76%0%0%0%0%1%6%5%4%3%2%2%2%0%0%0%0%1%1%1%0%0%0%0%0%1%1%2%2%2%3%16%40%49%57%65%70%27%16%11%8%
Visibility 6 mi6 mi6 mi6 mi6 mi6 mi6 mi6 mi6 mi6 mi6 mi6 mi6 mi6 mi6 mi6 mi6 mi6 mi6 mi6 mi6 mi6 mi6 mi6 mi6 mi6 mi6 mi6 mi6 mi6 mi6 mi6 mi6 mi6 mi6 mi6 mi6 mi6 mi6 mi6 mi6 mi6 mi6 mi6 mi6 mi6 mi6 mi6 mi
Precipitation 56%62%92%96%96%100%100%100%76%82%87%89%89%93%79%79%79%71%71%71%55%80%76%92%100%100%100%100%100%100%100%100%69%63%57%53%45%45%36%35%31%42%36%43%58%52%52%52%
Humidity 91%86%83%81%79%78%79%78%76%75%75%75%76%76%75%75%76%77%78%77%77%78%78%80%82%83%82%81%80%80%80%79%76%75%75%75%75%76%75%76%78%78%78%77%77%77%78%78%
Dew Point 68°F69°F69°F68°F68°F68°F68°F68°F68°F68°F69°F69°F69°F68°F68°F68°F68°F68°F68°F68°F68°F68°F68°F68°F68°F68°F67°F67°F67°F67°F67°F67°F66°F66°F66°F66°F66°F67°F67°F67°F67°F68°F67°F67°F67°F67°F67°F67°F
Pressure 29.91"29.91"29.88"29.88"29.88"29.91"29.91"29.91"29.91"29.91"29.91"29.91"29.88"29.85"29.85"29.85"29.85"29.85"29.88"29.88"29.91"29.91"29.91"29.88"29.88"29.85"29.85"29.85"29.85"29.85"29.88"29.91"29.91"29.91"29.88"29.88"29.85"29.83"29.83"29.83"29.83"29.85"29.88"29.88"29.88"29.88"29.88"29.88"
Wind Speed 10.7 mph10.3 mph10.5 mph9.3 mph9.4 mph8.2 mph9.5 mph9.5 mph9.3 mph9.1 mph9.8 mph12 mph14 mph14.9 mph14.2 mph14.1 mph13.9 mph12.4 mph11.6 mph10.3 mph9.7 mph9.3 mph8 mph7.4 mph5.8 mph5.7 mph7 mph8 mph8.2 mph6.7 mph5 mph4.1 mph2.5 mph2.3 mph3.7 mph4.1 mph5.3 mph7.5 mph9.4 mph11.5 mph12.2 mph12.3 mph11.8 mph11.6 mph11.7 mph11.6 mph12.5 mph12.9 mph
Wind
Direction
237°
WSW
228°
SW
237°
WSW
230°
SW
221°
SW
220°
SW
220°
SW
225°
SW
230°
SW
224°
SW
237°
WSW
236°
SW
237°
WSW
237°
WSW
234°
SW
239°
WSW
239°
WSW
238°
WSW
238°
WSW
240°
WSW
238°
WSW
238°
WSW
235°
SW
240°
WSW
247°
WSW
239°
WSW
222°
SW
211°
SSW
208°
SSW
221°
SW
234°
SW
248°
WSW
273°
W
281°
W
298°
WNW
284°
WNW
280°
W
273°
W
261°
W
257°
WSW
254°
WSW
253°
WSW
252°
WSW
253°
WSW
248°
WSW
243°
WSW
246°
WSW
248°
WSW

Daily Forecast

Date High Low Precip. Humidity
Today
Oct 28

Rain
77 °F
73 °F
100%
75%
Thursday
Oct 29

Rain
75 °F
73 °F
100%
75%
Friday
Oct 30

Rain
76 °F
73 °F
38%
66%
Saturday
Oct 31

Rain
76 °F
74 °F
82%
74%
Sunday
Nov 1

Rain
75 °F
73 °F
55%
74%
Monday
Nov 2

Rain
76 °F
73 °F
39%
79%
Tuesday
Nov 3

Clouds
76 °F
74 °F
0%
83%
Wednesday
Nov 4

Clouds
76 °F
74 °F
0%
76%
Thursday
Nov 5

Rain
76 °F
74 °F
22%
76%
Friday
Nov 6

Clear
76 °F
73 °F
25%
75%
Saturday
Nov 7

Clear
75 °F
73 °F
21%
76%
Sunday
Nov 8

Rain
75 °F
73 °F
24%
77%
Monday
Nov 9

Rain
74 °F
73 °F
44%
81%
Tuesday
Nov 10

Rain
75 °F
73 °F
39%
78%
Wednesday
Nov 11

Clouds
75 °F
73 °F
12%
75%
Thursday
Nov 12

Rain
74 °F
73 °F
36%
76%


Temperature 8-14 Day Outlook



Precipitation 8-14 Day Outlook




Quick Links
Molokai Island News
Molokai Island Photos
Molokai Island Videos




About Us
Contact Us
Site Map
Search Site
Advertise With Us
   
Molokai.USCoast.info
THE MOLOKAI ISLAND WEBSITE

Copyright 2020, Coastal Town
Privacy    |    Legal